Home > Time Zones > World Clock > Weather > Japan > Tokyo > Past weeks

Flag for Japan Weather past 2 weeks in Tokyo, Japan

Now
66 °F

Mild.


Feels Like: 66 °F
Forecast: 63 / 81 °F
Wind: 5 mph from North

Location: Tokyo

Current Time: May 26, 2015 at 1:22:12 AM

Latest Report: May 26, 2015 at 12:00 AM


Visibility: N/A

Pressure: 29.81 "Hg

Humidity: 73%

Dew point: 57 °F

Location of TokyoLocation

Historic Weather in Tokyo — Graph

°F

Tokyo temperature yesterday

Maximum temperature yesterday: 78 °F (at 11:00 AM)
Minimum temperature yesterday: 62 °F (at 4:00 AM)
Average temperature yesterday: 70 °F

Past Weeks' High & Low Weather Summary

 TemperatureHumidityPressure
High82 °F (May 14, 3:00 PM)98% (May 12, 11:00 PM)30.23 "Hg (May 12, 11:00 PM)
Low54 °F (May 11, 5:00 AM)17% (May 11, 11:00 AM)29.44 "Hg (May 13, 12:00 AM)
Average70 °F64%29.80 "Hg
* Reported Midnight between May 10 and May 11 — Midnight between May 25 and May 26, Tokyo, Weather by CustomWeather, © 2015

Note: Actual official high and low records may vary slightly from our data, if they occured in-between our weather recording intervals... More about our weather records

Advertising

Tokyo weather history for previous 24 hours

 ConditionsComfort  
Time TempWeatherWind HumidityBarometerVisibility
12:00 AM
Tue, May 26
66 °FMild.5 mph73%29.81 "HgN/A
11:00 PM
Mon, May 25
67 °FMild.5 mph73%29.83 "HgN/A
10:00 PM67 °FMild.5 mph73%29.84 "HgN/A
9:00 PM68 °FOvercast.5 mph75%29.84 "Hg12 mi
8:00 PM68 °FMild.8 mph75%29.83 "HgN/A
7:00 PM70 °FMild.5 mph70%29.83 "HgN/A
6:00 PM71 °FOvercast.7 mph68%29.81 "Hg9 mi
5:00 PM73 °FMild.9 mph62%29.81 "HgN/A
4:00 PM74 °FMild.8 mph57%29.82 "HgN/A
3:00 PM76 °FOvercast.5 mph55%29.82 "Hg12 mi
2:00 PM77 °FMild.8 mph48%29.82 "HgN/A
1:00 PM77 °FWarm.10 mph47%29.83 "HgN/A
12:00 PM76 °FOvercast.7 mph50%29.84 "Hg12 mi
11:00 AM78 °FWarm.7 mph51%29.84 "HgN/A
10:00 AM77 °FWarm.6 mph52%29.85 "HgN/A
9:00 AM77 °FPartly sunny.6 mph54%29.85 "Hg12 mi
8:00 AM73 °FMild.6 mph60%29.84 "HgN/A
7:00 AM71 °FMild.6 mph64%29.84 "HgN/A
5:00 AM63 °FMild.1 mph87%29.82 "HgN/A
4:00 AM62 °FCool.3 mph94%29.81 "HgN/A
3:00 AM62 °FOvercast.2 mph92%29.79 "Hg12 mi
2:00 AM63 °FMild.3 mph93%29.78 "HgN/A
1:00 AM63 °FMild.3 mph92%29.78 "HgN/A
Weather by CustomWeather, © 2015

See weather overviewHow to use our weather pages